TimeEDT,TemperatureF,Dew PointF,Humidity,Sea Level PressureIn,VisibilityMPH,Wind Direction,Wind SpeedMPH,Gust SpeedMPH,PrecipitationIn,Events,Conditions,WindDirDegrees,DateUTC
12:17 AM,17.6,7.3,64,29.94,10.0,NE,8.1,17.3,N/A,,Overcast,50,2013-03-16 04:17:00
12:36 AM,17.1,6.1,62,29.94,10.0,NE,5.8,16.1,N/A,,Overcast,50,2013-03-16 04:36:00
12:56 AM,16.5,6.4,65,29.95,10.0,NE,5.8,-,N/A,,Overcast,50,2013-03-16 04:56:00
1:17 AM,15.8,5.7,64,29.95,10.0,NNE,5.8,-,N/A,,Overcast,30,2013-03-16 05:17:00
1:56 AM,14.9,5.7,67,29.95,10.0,NE,5.8,-,N/A,,Overcast,40,2013-03-16 05:56:00
2:16 AM,14.7,5.5,67,29.96,10.0,NE,4.6,-,N/A,,Overcast,40,2013-03-16 06:16:00
2:36 AM,14.4,5.0,66,29.96,10.0,NE,5.8,-,N/A,,Overcast,40,2013-03-16 06:36:00
2:57 AM,14.0,4.3,65,29.96,10.0,NE,5.8,-,N/A,,Overcast,40,2013-03-16 06:57:00
3:16 AM,13.6,4.3,66,29.96,10.0,NE,6.9,-,N/A,,Overcast,50,2013-03-16 07:16:00
3:36 AM,13.1,3.9,67,29.96,10.0,ENE,8.1,-,N/A,,Overcast,60,2013-03-16 07:36:00
3:57 AM,12.6,3.2,66,29.95,10.0,NE,6.9,-,N/A,,Overcast,40,2013-03-16 07:57:00
4:16 AM,12.0,2.8,67,29.95,10.0,NE,8.1,-,N/A,,Overcast,40,2013-03-16 08:16:00
4:36 AM,11.7,2.8,68,29.95,10.0,NE,6.9,-,N/A,,Overcast,40,2013-03-16 08:36:00
4:56 AM,11.3,2.8,69,29.95,10.0,NE,6.9,-,N/A,,Overcast,40,2013-03-16 08:56:00
5:16 AM,10.9,2.5,69,29.95,7.0,NE,5.8,-,N/A,,Overcast,40,2013-03-16 09:16:00
5:37 AM,10.4,2.5,70,29.95,7.0,NE,9.2,-,N/A,,Overcast,40,2013-03-16 09:37:00
5:56 AM,10.0,2.8,73,29.95,7.0,NNE,4.6,-,N/A,,Overcast,30,2013-03-16 09:56:00
6:16 AM,9.5,2.1,72,29.95,7.0,NE,4.6,-,N/A,,Overcast,40,2013-03-16 10:16:00
6:37 AM,9.3,1.9,72,29.96,10.0,NE,3.5,-,N/A,,Overcast,40,2013-03-16 10:37:00
6:56 AM,9.0,1.4,71,29.96,7.0,NE,6.9,-,N/A,,Overcast,40,2013-03-16 10:56:00
7:17 AM,8.4,2.3,76,29.97,3.0,NE,5.8,-,N/A,Snow,Light Snow,40,2013-03-16 11:17:00
7:36 AM,8.2,2.3,77,29.97,3.0,NE,5.8,-,N/A,Snow,Light Snow,40,2013-03-16 11:36:00
7:56 AM,7.7,3.0,81,29.98,2.5,NE,5.8,-,N/A,Snow,Light Snow,50,2013-03-16 11:56:00
8:17 AM,7.7,2.8,81,29.98,3.0,ENE,4.6,-,N/A,Snow,Light Snow,60,2013-03-16 12:17:00
8:36 AM,7.7,2.5,79,29.99,4.0,NE,5.8,-,N/A,Snow,Light Snow,50,2013-03-16 12:36:00
8:57 AM,7.7,2.3,79,29.99,3.0,NE,5.8,-,N/A,Snow,Light Snow,40,2013-03-16 12:57:00
9:17 AM,7.7,2.1,78,29.99,4.0,NE,8.1,-,N/A,Snow,Light Snow,50,2013-03-16 13:17:00
9:36 AM,7.7,2.3,79,30.00,2.5,NE,4.6,-,N/A,Snow,Light Snow,40,2013-03-16 13:36:00
9:57 AM,7.7,2.3,79,30.00,3.0,NNE,4.6,-,N/A,,Haze,20,2013-03-16 13:57:00
10:16 AM,8.2,1.9,76,30.00,5.0,NNE,6.9,-,N/A,,Haze,20,2013-03-16 14:16:00
10:37 AM,8.6,1.4,73,30.00,10.0,NNE,6.9,-,N/A,,Scattered Clouds,30,2013-03-16 14:37:00
10:56 AM,9.3,1.0,69,30.00,10.0,NE,5.8,-,N/A,,Scattered Clouds,50,2013-03-16 14:56:00
11:16 AM,9.7,1.0,68,30.00,10.0,NE,4.6,-,N/A,,Scattered Clouds,50,2013-03-16 15:16:00
11:37 AM,10.6,1.2,66,29.99,10.0,NNE,3.5,-,N/A,,Scattered Clouds,30,2013-03-16 15:37:00
11:56 AM,11.1,1.0,64,29.99,10.0,ENE,3.5,-,N/A,,Mostly Cloudy,70,2013-03-16 15:56:00
12:16 PM,11.8,2.1,65,29.99,10.0,North,4.6,-,N/A,,Overcast,10,2013-03-16 16:16:00
12:36 PM,12.2,1.8,63,29.99,10.0,North,6.9,-,N/A,,Overcast,350,2013-03-16 16:36:00
12:56 PM,12.4,2.1,64,29.99,10.0,NNW,5.8,-,N/A,,Scattered Clouds,340,2013-03-16 16:56:00
1:17 PM,12.9,2.3,63,29.99,10.0,NNW,4.6,-,N/A,,Clear,340,2013-03-16 17:17:00
1:36 PM,12.9,2.1,62,29.99,10.0,North,5.8,-,N/A,,Clear,350,2013-03-16 17:36:00
1:56 PM,13.5,1.9,60,29.98,10.0,North,3.5,-,N/A,,Clear,360,2013-03-16 17:56:00
2:17 PM,14.0,2.3,60,29.98,10.0,Calm,Calm,-,N/A,,Clear,0,2013-03-16 18:17:00
2:36 PM,14.9,1.6,56,29.97,10.0,Calm,Calm,-,N/A,,Clear,0,2013-03-16 18:36:00
2:57 PM,15.6,1.8,54,29.97,10.0,North,3.5,-,N/A,,Clear,10,2013-03-16 18:57:00
3:17 PM,16.3,0.9,51,29.96,10.0,NNE,4.6,-,N/A,,Clear,20,2013-03-16 19:17:00
3:36 PM,18.0,0.9,47,29.96,10.0,WNW,4.6,-,N/A,,Clear,290,2013-03-16 19:36:00
3:57 PM,17.6,0.3,47,29.95,10.0,Calm,Calm,-,N/A,,Clear,0,2013-03-16 19:57:00
4:17 PM,18.5,1.4,47,29.95,10.0,WSW,5.8,-,N/A,,Clear,240,2013-03-16 20:17:00
4:36 PM,18.9,2.3,49,29.95,10.0,Calm,Calm,-,N/A,,Clear,0,2013-03-16 20:36:00
4:57 PM,19.4,3.9,51,29.94,10.0,West,5.8,-,N/A,,Clear,280,2013-03-16 20:57:00
5:16 PM,19.8,5.0,53,29.94,10.0,West,4.6,-,N/A,,Clear,260,2013-03-16 21:16:00
5:36 PM,20.7,3.6,48,29.94,10.0,WNW,5.8,-,N/A,,Clear,300,2013-03-16 21:36:00
5:57 PM,20.5,3.4,48,29.94,10.0,NW,6.9,-,N/A,,Clear,310,2013-03-16 21:57:00
6:16 PM,20.3,3.9,49,29.94,10.0,NW,6.9,17.3,N/A,,Clear,320,2013-03-16 22:16:00
6:36 PM,19.6,3.4,50,29.94,10.0,NNW,5.8,-,N/A,,Clear,330,2013-03-16 22:36:00
6:57 PM,19.4,3.6,50,29.95,10.0,NW,4.6,-,N/A,,Clear,320,2013-03-16 22:57:00
7:16 PM,19.0,3.4,51,29.95,10.0,NW,5.8,-,N/A,,Clear,310,2013-03-16 23:16:00
7:36 PM,18.1,4.5,55,29.95,10.0,WNW,3.5,-,N/A,,Clear,300,2013-03-16 23:36:00
7:57 PM,17.6,4.5,56,29.95,10.0,Calm,Calm,-,N/A,,Clear,0,2013-03-16 23:57:00
8:16 PM,17.2,4.5,57,29.95,10.0,Calm,Calm,-,N/A,,Clear,0,2013-03-17 00:16:00
8:37 PM,16.3,5.0,61,29.95,10.0,Calm,Calm,-,N/A,,Clear,0,2013-03-17 00:37:00
8:57 PM,13.6,3.9,65,29.94,10.0,Calm,Calm,-,N/A,,Clear,0,2013-03-17 00:57:00
9:16 PM,10.6,3.6,73,29.93,10.0,Calm,Calm,-,N/A,,Scattered Clouds,0,2013-03-17 01:16:00
9:37 PM,11.5,5.0,75,29.93,10.0,Calm,Calm,-,N/A,,Overcast,0,2013-03-17 01:37:00
9:56 PM,10.8,4.8,77,29.93,10.0,Calm,Calm,-,N/A,,Overcast,0,2013-03-17 01:56:00
10:17 PM,12.2,6.8,79,29.94,10.0,Calm,Calm,-,N/A,,Overcast,0,2013-03-17 02:17:00
10:36 PM,13.6,7.3,76,29.94,10.0,Calm,Calm,-,N/A,,Overcast,0,2013-03-17 02:36:00
10:56 PM,14.5,7.9,75,29.95,10.0,Calm,Calm,-,N/A,,Overcast,0,2013-03-17 02:56:00
11:17 PM,18.1,12.9,80,29.95,4.0,SW,3.5,-,N/A,Snow,Light Snow,230,2013-03-17 03:17:00
11:36 PM,19.2,16.3,89,29.95,5.0,WSW,3.5,-,N/A,Snow,Light Snow,240,2013-03-17 03:36:00
11:56 PM,20.8,17.2,86,29.95,10.0,WSW,4.6,-,N/A,,Overcast,250,2013-03-17 03:56:00